Main page
METAR-TAF:

METAR-TAF

Airports :

Pontoise – Cormeilles Aerodrome

Pontoise, France

latitude: 49-05-48N, longitude: 002-02-27E, elevation: 99 m

Current weather observation

The report was made 33 minutes ago, at 13:00 UTC
Wind 6 kt from the Southeast
Temperature 9°C
Humidity 93%
Pressure 1022 hPa
Visibility: 1800 m
Overcast at a height of 200 ft
mist

METAR: LFPT 151300Z AUTO 13006KT 1800 BR OVC002 09/08 Q1022

Time: 14:33 (13:33 UTC)


TAF: missing

Weather observations and forecasts of more than 4000 airports (METAR and TAF reports).

The available stations are represented by yellow and red dots on the map.

Hover mouse over dot to see the name of the station.

Then click to see weather observations and forecasts.

To change the map : click on the green buttons with a black cross to zoom in, on the green button with a dash to zoom out, or on the green arrows for adjacent maps.


METAR-TAF: